This is the latest recevied weather packets stored in our database for station/object N8BAP. If no packets are shown the sender has not sent any weather packets the latest 10 day(s).
| Time | Temp. | Humidity | Pressure | Rain* | Wind** | Luminosity | Snow |
|---|---|---|---|---|---|---|---|
| 1787819914 | 20° C | 85% | 1019.1 hPa | 0 mm | - | 0 W/m² | - |
| 1787819609 | 20° C | 85% | 1019.3 hPa | 0 mm | - | 0 W/m² | - |
| 1787819304 | 20° C | 85% | 1019 hPa | 0 mm | - | 0 W/m² | - |
| 1787818999 | 19.44° C | 86% | 1019 hPa | 0 mm | - | 0 W/m² | - |
| 1787818697 | 18.89° C | 88% | 1019.3 hPa | 0 mm | - | 0 W/m² | - |
| 1787818393 | 18.89° C | 90% | 1019 hPa | 0 mm | - | 0 W/m² | - |
| 1787818088 | 18.33° C | 90% | 1018.8 hPa | 0 mm | - | 0 W/m² | - |
| 1787817787 | 18.33° C | 89% | 1018.9 hPa | 0 mm | - | 0 W/m² | - |
| 1787817479 | 18.89° C | 88% | 1018.6 hPa | 0 mm | - | 0 W/m² | - |
| 1787817174 | 18.89° C | 86% | 1018.8 hPa | 0 mm | - | 0 W/m² | - |
| 1787816873 | 19.44° C | 85% | 1018.5 hPa | 0 mm | - | 0 W/m² | - |
| 1787816568 | 19.44° C | 85% | 1018.6 hPa | 0 mm | - | 0 W/m² | - |
| 1787816264 | 19.44° C | 84% | 1018.4 hPa | 0 mm | - | 0 W/m² | - |
| 1787815952 | 19.44° C | 84% | 1018.6 hPa | 0 mm | - | 0 W/m² | - |
| 1787815648 | 20° C | 84% | 1018.5 hPa | 0 mm | - | 0 W/m² | - |
| 1787815345 | 20° C | 83% | 1018.5 hPa | 0 mm | - | 0 W/m² | - |
| 1787815040 | 20° C | 83% | 1018.8 hPa | 0 mm | - | 0 W/m² | - |
| 1787814734 | 20° C | 83% | 1018.8 hPa | 0 mm | - | 0 W/m² | - |
| 1787814429 | 20° C | 83% | 1018.6 hPa | 0 mm | - | 0 W/m² | - |
| 1787814124 | 20° C | 83% | 1018.8 hPa | 0 mm | - | 0 W/m² | - |
| 1787813819 | 20° C | 83% | 1018.9 hPa | 0 mm | - | 0 W/m² | - |
| 1787813514 | 20° C | 83% | 1019 hPa | 0 mm | - | 0 W/m² | - |
| 1787813211 | 20° C | 83% | 1018.9 hPa | 0 mm | - | 0 W/m² | - |
| 1787812911 | 20° C | 84% | 1018.9 hPa | 0 mm | - | 0 W/m² | - |
| 1787812302 | 20° C | 83% | 1018.6 hPa | 0 mm | - | 0 W/m² | - |
* Rain latest hour (hover to see other rain measurements)
** Current wind speed in m/s (hover to see current wind gust speed)